User: anonymous   Login
Location: ???? ??????? ????
(31.2176°N, 31.6797°E)
Time: 09:43:09
(UTC+00:00)
Language:

Meteor 2-21 Rocket - Orbit

View from above orbital plane
View from above orbital plane
View from above satellite
View from above satellite

Ground track
Ground track

The orbit data is extracted from the following two-line orbital elements,

1 22784U 93055C   21018.87968873  .00000014  00000-0 -46263-6 0  9996
2 22784  82.5490  66.3845 0022075   4.8107 168.2370 13.83439878382599
Epoch (UTC): 18 January 2021 21:06:45
Eccentricity: 0.0022075
inclination: 82.5490°
perigee height: 935 km
apogee height: 968 km
right ascension of ascending node: 66.3845°
argument of perigee: 4.8107°
revolutions per day: 13.83439878
mean anomaly at epoch: 168.2370°
orbit number at epoch: 38259

The dashed part of the orbit path shows where the satellite is in the earth's shadow,  

DLR